Honolulu, HI

2:51 PM HST on April 25, 2017 (GMT -1000)
Honolulu International

Weather History for PHNL - July, 2014

Change the Weather History Date:

Sunday, July 20, 2014

  Actual Average Record
Temperature  
Mean Temperature 79 °F 81 °F  
Max Temperature 86 °F 88 °F 91 °F (1987)
Min Temperature 72 °F 75 °F 67 °F (1974)
Degree Days  
Heating Degree Days 0 0  
Month to date heating degree days 0 0  
Since 1 June heating degree days 0 0  
Since 1 July heating degree days 0 0  
Cooling Degree Days 14 16  
Month to date cooling degree days 342 320  
Year to date cooling degree days 2414 2278  
Since 1 June cooling degree days 805 776  
Growing Degree Days 29 (Base 50)    
Moisture  
Dew Point 69 °F    
Average Humidity 74    
Maximum Humidity 100    
Minimum Humidity 48    
Precipitation  
Precipitation 0.86 in 0.02 in 2.18 in (1989)
Month to date precipitation 1.06 0.29  
Year to date precipitation 11.61 8.12  
Snow  
Snow 0.00 in - - ()
Month to date snowfall 0.0  
Since 1 June snowfall 0.0  
Since 1 July snowfall 0.0  
Snow Depth 0.00 in    
Sea Level Pressure  
Sea Level Pressure 29.95 in    
Wind  
Wind Speed 12 mph (ENE)    
Max Wind Speed 28 mph    
Max Gust Speed 37 mph    
Visibility 9 miles    
Events Rain , Thunderstorm    
T = Trace of Precipitation, MM = Missing Value Source: NWS Daily Summary

Daily Weather History Graph

Daily Weather History Graph

Search for Another Location

Airport or City:

Trip Planner

Search our weather history database for the weather conditions in past years. The results will help you decide how hot, cold, wet, or windy it might be!

Date:

Astronomy

Jul. 20, 2014 Rise Set
Actual Time 6:00 AM HST 7:15 PM HST
Civil Twilight 5:36 AM HST 7:39 PM HST
Nautical Twilight 5:07 AM HST 8:08 PM HST
Astronomical Twilight 4:37 AM HST 8:38 PM HST
Moon 1:05 AM HST (7/20) 2:20 PM HST (7/20)
Length of Visible Light 14h 03m
Length of Day
13h 15m
Waning Crescent, 31% of the Moon is Illuminated
Jul 20
Waning Crescent
Jul 26
New
Aug 3
First Quarter
Aug 10
Full
Aug 17
Last Quarter

Hourly Weather History & Observations

Time (HST) Temp. Heat Index Dew Point Humidity Pressure Visibility Wind Dir Wind Speed Gust Speed Precip Events Conditions
12:53 AM 77.0 °F - 75.0 °F 94% 29.93 in 10.0 mi NNE 4.6 mph - 0.00 in Rain , Thunderstorm Light Thunderstorms and Rain
1:53 AM 75.9 °F - 73.0 °F 91% 29.92 in 10.0 mi NW 6.9 mph - 0.00 in   Overcast
2:53 AM 77.0 °F - 72.0 °F 84% 29.90 in 10.0 mi North 5.8 mph - 0.00 in   Overcast
3:09 AM 75.2 °F - 71.6 °F 89% 29.92 in 2.0 mi NNE 15.0 mph 20.7 mph 0.02 in Rain Heavy Rain
3:17 AM 75.2 °F - 71.6 °F 89% 29.92 in 1.5 mi NNE 11.5 mph - 0.14 in Rain Heavy Rain
3:53 AM 73.0 °F - 71.1 °F 93% 29.92 in 1.5 mi Calm Calm - 0.58 in Rain Heavy Rain
4:13 AM 73.4 °F - 69.8 °F 88% 29.94 in 3.0 mi ENE 10.4 mph - 0.19 in Rain Heavy Rain
4:53 AM 73.0 °F - 68.0 °F 84% 29.94 in 3.0 mi NNE 4.6 mph - 0.28 in Rain Light Rain
5:53 AM 73.9 °F - 68.0 °F 82% 29.94 in 10.0 mi Variable 6.9 mph - 0.00 in   Mostly Cloudy
6:53 AM 75.0 °F - 66.9 °F 76% 29.96 in 10.0 mi East 19.6 mph 25.3 mph N/A   Mostly Cloudy
7:53 AM 78.1 °F - 66.9 °F 68% 29.97 in 10.0 mi ENE 4.6 mph 17.3 mph N/A   Mostly Cloudy
8:53 AM 79.0 °F - 66.0 °F 64% 30.01 in 10.0 mi East 15.0 mph 25.3 mph N/A   Mostly Cloudy
9:53 AM 80.1 °F 82.1 °F 66.0 °F 62% 30.01 in 10.0 mi East 13.8 mph 21.9 mph N/A   Mostly Cloudy
10:53 AM 81.0 °F 82.7 °F 64.9 °F 58% 30.01 in 10.0 mi ENE 19.6 mph 29.9 mph N/A   Mostly Cloudy
11:53 AM 82.0 °F 83.8 °F 64.9 °F 56% 29.99 in 10.0 mi East 27.6 mph 36.8 mph N/A   Mostly Cloudy
12:53 PM 84.9 °F 86.6 °F 64.9 °F 51% 29.95 in 10.0 mi East 20.7 mph 31.1 mph N/A   Scattered Clouds
1:53 PM 86.0 °F 87.3 °F 64.0 °F 48% 29.94 in 10.0 mi East 16.1 mph 29.9 mph N/A   Scattered Clouds
2:53 PM 82.9 °F 85.8 °F 68.0 °F 60% 29.94 in 10.0 mi East 21.9 mph 35.7 mph N/A   Mostly Cloudy
3:53 PM 82.9 °F 85.8 °F 68.0 °F 60% 29.92 in 10.0 mi East 13.8 mph 34.5 mph N/A   Mostly Cloudy
4:53 PM 84.9 °F 88.2 °F 68.0 °F 57% 29.92 in 10.0 mi East 23.0 mph 27.6 mph N/A   Scattered Clouds
5:53 PM 82.0 °F 85.5 °F 69.1 °F 65% 29.92 in 10.0 mi ENE 15.0 mph 27.6 mph N/A   Scattered Clouds
6:53 PM 81.0 °F 84.1 °F 69.1 °F 67% 29.93 in 10.0 mi ENE 11.5 mph - N/A   Scattered Clouds
7:53 PM 80.1 °F 82.9 °F 69.1 °F 69% 29.95 in 10.0 mi ENE 16.1 mph - N/A   Scattered Clouds
8:53 PM 80.1 °F 83.2 °F 70.0 °F 71% 29.96 in 10.0 mi NE 11.5 mph 18.4 mph N/A   Scattered Clouds
9:53 PM 79.0 °F - 71.1 °F 77% 29.97 in 10.0 mi East 16.1 mph - N/A   Partly Cloudy
10:53 PM 79.0 °F - 71.1 °F 77% 29.98 in 10.0 mi East 15.0 mph - N/A   Partly Cloudy
11:53 PM 78.1 °F - 71.1 °F 79% 29.97 in 10.0 mi ENE 10.4 mph - N/A   Partly Cloudy